Погода в Кургане

Погода в Кургане : погода сейчас, прогноз погоды и архив. Всё, что Вы хотите узнать о погоде в Кургане!

Хотите узнать прогноз погоды в Кургане? Тогда Вам сюда: Погода в Кургане

Поиск расширенной информации на нашем сайте:

Полезная информация: ТрансВЕНТА - автоперевозки по России.

Другие новости

Новости СМИ2

Главная страница сайта

Новости сайта

02.10.2013

Напоминаем, что на нашем новом сайте вы можете получить высокодетализированные прогнозы погоды по пунктам России, СНГ и мира (включающие важные для авиации метеовеличины, такие как направление и скорость ветра, видимость, явления погоды, количество и форма облачности, нижняя и верхняя граница облачности), а также ознакомиться с разнообразными материалами по авиационной метеорологии и подборкой полезных ссылок на эту тему.

Сайт Метеоцентр.Азия посвящён разработке технологий оптимизации авиаметеорологического обслуживания, включая проектирование и перспективное создание нескольких автоматизированных авиаметеорологических систем:
- система выпуска высокодетальных прогностических карт явлений погоды для нижнего воздушного пространства по России и ближнему зарубежью;
- система верификации прогнозов TAF (выпускаемых синоптиками официальных АМСГ РФ и ближнего зарубежья) и AUTOTAF (выпускаемых сайтом Метеоцентр.Азия) - выявление ошибок, онлайн-сопоставление с фактической погодой METAR, автоматическое внесение коррективов в прогнозы при резком отклонении фактической погоды от прогноза, подсчёт оправдываемости прогнозов по элементам и в целом;
- система обработки, анализа и отображения авиаметеорологической информации для применения провайдерами метеорологической информации.

Рекомендуем: Где провести корпоративное мероприятие в Санкт-Петербурге spb.go2all.ru.

Погода в Кургане - сегодня

Время (UTC), дата Ветер
(°,м/с) 
Видим.   Явления Облачность Т
(°С)
Тd
(°С)
f(%) Тe
(°С)
Pmin
(гПа)
dP
(гПа)
Po
(мм)
O2
(г/м3)
Тmin Tmax R s Состояние
почвы
12 28.03.15 350 (С) 6-11{12}  20000 м    ясно 
-7.4 -17 46 -12  1042.5  0.8  774  322           
15 28.03.15 360 (С) 1{11}  10 км    ясно 
-11.5 -16.6 66 -11  1044.1  1.4  776  328    -7       
18 28.03.15 360 (С) 10 км    ясно 
-13.9 -18.6 67 -16  1045.1  776  331           
21 28.03.15 010 (С) 10 км    ясно 
-16.3 -19.9 73 -16  1045.9  0.7  777  334           
00 29.03.15 тихо ()   10 км    ясно 
-18 -20.7 79 -18  1047  0.9  777  337           
03 29.03.15 тихо ()   20000 м    ясно 
-16.1 -20.2 71 -16  1047.9  778  335  -18.8      мокрый или
старый снег
50-90% 
06 29.03.15 010 (С) 20000 м    3/0 верхняя 
[Ci fib]
-8.1 -18.8 42 -10  1047.7  0.1  778  325           
09 29.03.15 030 (СВ) 20000 м    ясно 
-4.1 -18.6 31 -5  1045.9  -1.6  777  319           
12 29.03.15 200 (Ю) 20000 м    ясно 
-3 -16.7 34 -5  1043.3  -2.4  775  317           
15 29.03.15 180 (Ю) 10 км    ясно 
-6.2 -14.1 54 -6  1041.7  -2.4  774  320    -2.9       
18 29.03.15 200 (Ю) 10 км    ясно 
-9 -15.4 60 -11  1040  -1.8  773  323           
21 29.03.15 190 (Ю) 10 км    ясно 
-10.5 -16.5 61 -12  1038  -2  771  325           
00 30.03.15 190 (Ю) 10 км    ясно 
-11.3 -17 63 -13  1037.1  -0.9  770  325           
03 30.03.15 170 (Ю) 20000 м    ясно 
-10.6 -16.2 63 -10  1036.6  -0.5  770  324  -12.5      мокрый или
старый снег
50-90% 
06 30.03.15 290 (З) 20000 м    ясно 
-1 -13.5 38 -4  1035.1  -1.1  769  312           
09 30.03.15 290 (З) 20000 м    4/0 верхняя 
[Ci fib]
+1.2 -13.1 33 1033.2  -1.8  768  309           
12 30.03.15 290 (З) 20000 м    4/0 верхняя 
[Ci fib]
+2.8 -12.3 32 +1  1032  -1.2  767  307           
15 30.03.15 250 (З) 10 км    3/0 верхняя 
[Ci fib]
-0.9 -11 46 1031.9  -0.2  767  311    +2.8       
18 30.03.15 180 (Ю) 10 км    ясно 
-4.7 -10.4 64 -6  1031.9  -0.2  767  315           
21 30.03.15 170 (Ю) 10 км    ясно 
-6.7 -11.7 68 -6  1031.6  -0.3  766  318           
00 31.03.15 тихо ()   10 км    3/0 верхняя 
[Ci fib]
-8.6 -11.7 78 -9  1032.1  0.4  767  320           
03 31.03.15 290 (З) 20000 м    10/0 верхняя 
[Cs]
-5 -12.4 56 -6  1032.7  0.7  767  316  -9.2      мокрый или
старый снег
50-90% 
06 31.03.15 020 (С) 20000 м    10/0 средняя, верхняя 
[Ac trans|Ci fib]
+1 -12.5 36 1031.9  -0.6  767  309           
09 31.03.15 290 (З) 20000 м    10/0 средняя, верхняя 
[Ac trans|Ci fib]
+2.6 -13.3 30 +2  1030.8  -1.1  766  307           
12 31.03.15 020 (С) 20000 м    10/0 средняя, верхняя 
[Ac trans|Ci fib]
+3.8 -11.3 32 +5  1030.4  -0.3  766  305           
Время (UTC), дата Ветер
(°,м/с) 
Видим.   Явления Облачность Т
(°С)
Тd
(°С)
f(%) Тe
(°С)
Pmin
(гПа)
dP
(гПа)
Po
(мм)
O2
(г/м3)
Тmin Tmax R s Состояние
почвы

Для получения пояснительной информации подведите курсор к названию столбца.

ПОГОДА в Кургане - архив

Всё, что Вы хотите узнать о погоде в Кургане - удобно и подробно!

Выберите нужную дату (начиная с 1 января 2013* года) и нажмите кнопку "Найти".
Будут отображены архивные сводки погоды по пункту Курган, начиная с указанной даты.


Отображать данные в формате CSV (для использования в таблицах Excel)


Внимание! Наш архив погоды предназначен исключительно для личного некоммерческого использования в познавательных целях. Если Вам необходимы официальные справки о состоянии погоды (для производственных, юридических, коммерческих и т.п. целей), обращайтесь в органы Росгидромета.

*Примечание: данная дата относится к архиву по метеостанциям СССР (Россия, СНГ, Балтия).
Архив по метеостанциям Зарубежной Европы и Азии (кроме Китая) хранится 10 дней, по другим регионам земного шара (Китай, Африка, Америка, Австралия, Океания) - 1 день.

Курган - район местоположения метеостанции


Название, широта, долгота, высота метеостанции:
Курган 55.5°ш. 65.4°д. 74 м над ур. моря [Российская Федерация]

Дополнительная информация

В oтличие oт бoльшинства пoгoдных сайтoв мы публикуем пoдрoбную метеoинфoрмацию в детальнoм прoфессиoнальнoм фoрмате.

Характеристики температуры и влажнoсти вoздуха измеряются на высoте 2 м в тени вдали oт зданий и деревьев.
Скoрoсть ветра измеряется на высoте 10 м (на урoвне рoста челoвека скoрoсть ветра ниже в 1.5-2 раза). Если метеoстанция нахoдится в гoрoде или в лесу, тo скoрoсть ветра занижена на 2-4 м/с пo сравнению с oткрытым местoм. Скoрoсть ветра над акватoриями крупных рек и oзёр, а также на вершинах хoлмoв на 2-5 м/с выше, чем в oбычных услoвиях.
Атмoсфернoе давление в разных тoчках местнoсти мoжет значительнo oтличаться oт давления на метеoстанции, в зависимoсти oт услoвий рельефа (при пoдъёме на 10 м давление пoнижается примернo на 1 мм рт.ст.).